Location: Newark
(44.3681°N, 100.3364°W)
Time: 14:57:03
(UTC+00:00)

Vanguard 1 - Pass Details

Date: 25 February 2020
Orbit: 649 x 3833 km, 34.2° (Epoch: 09 April)

Event Time Altitude Azimuth Distance (km) Brightness Sun altitude
Rises 11:06:03 0° 195° (SSW) 7,531 14.3 -25.7°
Reaches altitude 10° 11:12:37 10° 183° (S) 6,777 14.2 -24.5°
Maximum altitude 11:28:56 25° 138° (SE) 5,652 14.2 -21.7°
Drops below altitude 10° 11:43:44 10° 93° (E) 6,212 15.3 -19.0°
Sets 11:49:11 0° 82° (E) 6,824 16.1 -18.1°
